Preview of NWS' New Version of Forecast
This preview is not operational and should not be used for support decisions.

Regional Weather Roundup (RWR)

Issued by National Weather Service (NWS)

                            
000
ASUS45 KBOU 172110
RWRCO 

WEATHER ROUNDUP FOR COLORADO
NATIONAL WEATHER SERVICE DENVER/BOULDER CO
300 PM MDT WED JUL 17 2019

NOTE: "FAIR" INDICATES FEW OR NO CLOUDS BELOW 12000 FEET WITH NO
SIGNIFICANT WEATHER AND/OR OBSTRUCTIONS TO VISIBILITY.

COZ001>005-013-030-031-172200-
...NORTHWEST COLORADO...
  
CITY           SKY/WX    TMP DP  RH WIND       PRES   REMARKS
CRAIG          FAIR      88  34  14 SW23G32   30.06F                  
HAYDEN         FAIR      87  38  17 SW22G31   30.10F                  
MEEKER         FAIR      89  29  11 SW14G33   30.11S                  
RANGELY        FAIR      95  22   7 W24G32    30.00R                  
RABBIT EARS PA NOT AVBL                                               
STEAMBOAT SPGS FAIR      83  37  19 SW14G22   30.14S                  
WALDEN         FAIR      79  30  17 SW24G37   30.26S                  
$$

COZ006>008-011-172200-
...WEST CENTRAL VALLEYS...
  
CITY           SKY/WX    TMP DP  RH WIND       PRES   REMARKS
GRAND JUNCTION FAIR      98  31   9 W20G29    29.98F                  
MONTROSE       FAIR      93  39  15 W20G29    30.11F                  
EAGLE          FAIR      85  43  22 SW18      30.15F                  
RIFLE          FAIR      93  39  15 W21G32    30.04F                  
DELTA          FAIR      99  32   9 SW20G26   30.04F                  
NUCLA          FAIR      91  30  11 W10G26    30.15F                  
$$

COZ017>023-064>068-172200-
...SOUTHWEST COLORADO...
  
CITY           SKY/WX    TMP DP  RH WIND       PRES   REMARKS
DURANGO        FAIR      87  35  15 W18G30    30.21F                  
CORTEZ         FAIR      92  35  13 W14G26    30.15F                  
PAGOSA SPRINGS FAIR      83  38  19 W16G23    30.28F                  
TELLURIDE      FAIR      75  32  20 W13G23    30.42S                  
WOLF CREEK PAS NOT AVBL                                               
$$

COZ009-010-012-014-032>034-037-058>063-172200-
...CENTRAL COLORADO...
  
CITY           SKY/WX    TMP DP  RH WIND       PRES   REMARKS
ASPEN          FAIR      81  35  19 W10G16    30.25F                  
BUENA VISTA    FAIR      85  31  14 W13G23    30.24S                  
COPPER MTN     FAIR      64  30  27 W9G23     30.62S                  
BERTHOUD PASS  FAIR      55  43  62 W16G33    30.64R                  
COTTONWOOD PAS NOT AVBL                                               
GUNNISON       FAIR      81  41  24 W16G24    30.24F                  
GRANBY         NOT AVBL                                               
KREMMLING      FAIR      86  37  17 SW13G25   30.21S                  
LEADVILLE      FAIR      74  30  19 W15G23    30.41F                  
SALIDA         FAIR      89  29  11 W16G26    30.27F                  
SUNLIGHT       FAIR      70  37  30 SW7G20    30.53S                  
WILKERSON PASS PTSUNNY   72  23  16 SW9G18    30.55F                  
$$

COZ069>075-172200-
...SAN LUIS VALLEY/SANGRE DE CRISTO MOUNTAINS...
  
CITY           SKY/WX    TMP DP  RH WIND       PRES   REMARKS
ALAMOSA        FAIR      85  38  18 MISG      30.22F                  
DEL NORTE      FAIR      85  40  20 N13       30.26R                  
LA VETA PASS   NOT AVBL                                               
SAGUACHE       TSTM      68  54  60 CALM      30.29R                  
$$

COZ035-036-038>040-172200-
...NORTHERN COLORADO FRONT RANGE...
  
CITY           SKY/WX    TMP DP  RH WIND       PRES   REMARKS
DENVER INTL AP PTSUNNY   94  39  14 W3        29.97F                  
AURORA         PTSUNNY   92  42  17 N6        30.01S                  
FRONT RANGE AP PTSUNNY   95  39  14 N6        29.99F                  
ERIE MUNI ARPT FAIR      94  38  14 E3        29.98F                  
BOULDER MUN AP FAIR      95  37  13 W15G31    29.94F                  
CENTENNIAL     PTSUNNY   91  42  18 E13       30.02S                  
BROOMFIELD     PTSUNNY   95  37  13 N8        29.99F                  
FORT COLLINS   FAIR      97  51  21 SE10      29.93F                  
LONGMONT       FAIR     100  33   9 W14G30    29.94F                  
$$

COZ041-046-047-076>085-087-088-172200-
...PIKES PEAK/PALMER DIVIDE AND SOUTHERN FOOTHILLS...
  
CITY           SKY/WX    TMP DP  RH WIND       PRES   REMARKS
COLO. SPRINGS  FAIR      93  37  14 S8        30.04F                  
A. F. ACADEMY  NOT AVBL                                               
SCHRIEVER AFB  NOT AVBL                                               
CHEYENNE MTN   NOT AVBL                                               
ELLICOTT         N/A      1 N/A N/A S14       30.04F WCI -17          
FALCON         FAIR      88  32  13 SE5       30.12F                  
FORT CARSON    FAIR      93  37  14 SE12      30.00F                  
LIMON          FAIR      91  37  15 NE7       29.98F                  
MONUMENT HILL  FAIR      82  41  23 CALM      30.14F                  
CANON CITY     NOT AVBL                                               
WALSENBURG     NOT AVBL                                               
TRINIDAD       FAIR      95  42  16 MISG      30.03F                  
$$

COZ042>045-048>051-090-091-172200-
...NORTHEAST COLORADO...
  
CITY           SKY/WX    TMP DP  RH WIND       PRES   REMARKS
GREELEY ARPT   FAIR      95  57  27 E12       29.92F                  
AKRON          FAIR      86  60  41 E7        29.95F                  
BURLINGTON     FAIR     100  52  19 CALM      29.88F                  
WRAY           FAIR      95  50  21 E5        29.87F                  
YUMA           FAIR      90  19   7 E6        29.91F                  
STERLING       FAIR      90  61  37 E7        29.89F                  
HOLYOKE        FAIR      95  61  31 E8        29.88S                  
FORT MORGAN    NOT AVBL                                               
$$

COZ086-089-092>099-172200-
...SOUTHEAST COLORADO...
  
CITY           SKY/WX    TMP DP  RH WIND       PRES   REMARKS
PUEBLO         FAIR      98  41  14 SE6       29.91F                  
LA JUNTA       FAIR     103  42  12 NE5       29.87F                  
LAMAR          FAIR     102  45  14 CALM      29.81F                  
SPRINGFIELD      N/A     98  51  20 S17G33    29.90F                  
$$